User: anonymous   Login
Location: Unspecified
(0.0000°N, 0.0000°E)
Time: 00:07:19
(UTC+00:00)
Language:

Navstar 5 - Orbit

View from above orbital plane
View from above orbital plane
View from above satellite
View from above satellite

Ground track
Ground track

The orbit data is extracted from the following two-line orbital elements,

1 11690U 80011A   18112.33639132 +.00000063 +00000-0 +00000-0 0  9999
2 11690 063.2640 140.9653 0453486 195.7601 219.1882 02.00577033294000
Epoch (UTC): 22 April 2018 08:04:24
Eccentricity: 0.0453486
inclination: 63.2640°
perigee height: 18976 km
apogee height: 21385 km
right ascension of ascending node: 140.9653°
argument of perigee: 195.7601°
revolutions per day: 2.00577033
mean anomaly at epoch: 219.1882°
orbit number at epoch: 29400

The dashed part of the orbit path shows where the satellite is in the earth's shadow,  

DLR